Theta_e
350 351 351 349 349 348 350 352 352 350 349 350 351 352 351 351 351 351 351 350 348 349 351 353 351 349 349 350 350 349 348 349 348 348 349 350 350 349 348 348 349 349 349 349 348 348 348 349 349 349 351 353 354 354 355 355 356 356 358 359 359 357 356
350 350 350 349 349 348 350 353 352 351 351 351 351 351 351 351 350 350 351 349 349 351 350 349 349 348 347 348 348 348 348 348 347 348 349 350 350 350 349 348 350 350 349 348 347 348 349 350 350 350 352 353 354 355 355 355 355 356 357 358 358 358 358
350 350 350 350 350 349 350 353 353 352 352 351 350 349 349 350 350 349 350 349 349 351 349 348 349 348 347 349 349 348 347 347 347 348 349 350 350 350 349 349 349 349 348 347 347 348 349 350 349 349 352 353 353 355 355 354 355 355 357 358 357 357 358
350 350 350 350 351 350 350 353 353 352 352 350 348 347 347 347 348 348 348 348 349 349 349 349 348 347 349 352 351 350 349 347 346 348 349 349 349 349 350 350 349 348 348 347 347 347 347 346 346 348 351 352 353 354 354 353 354 355 357 358 356 356 356
350 350 350 351 351 350 351 353 353 353 353 351 348 346 347 347 348 349 349 350 351 350 349 348 346 346 350 352 351 350 349 347 346 348 348 349 348 349 349 350 348 347 347 347 346 346 346 345 344 347 350 351 351 352 352 352 353 354 356 357 356 356 354
350 350 350 351 351 350 350 352 353 353 354 354 350 347 348 349 349 350 350 350 350 349 348 347 347 347 349 350 350 350 348 348 348 348 348 349 349 349 349 348 348 347 346 347 346 346 347 346 345 346 348 350 349 349 350 351 351 352 355 356 355 355 353
351 351 350 350 350 349 350 352 353 353 352 353 351 350 349 349 349 350 350 350 349 348 346 347 349 349 348 348 350 349 348 349 349 349 349 349 349 349 348 348 348 347 346 347 346 347 348 347 345 345 348 348 346 346 347 348 348 350 353 355 355 354 353
353 353 350 350 349 347 350 353 353 353 351 351 351 352 351 351 351 350 351 350 349 349 348 348 350 350 348 347 348 349 349 349 350 350 350 349 349 348 348 348 348 348 347 347 347 347 347 346 344 345 347 347 345 346 346 347 348 348 350 353 353 352 351
356 355 353 351 349 348 352 355 354 354 353 351 351 353 352 352 352 351 351 351 350 350 350 350 350 349 348 348 349 350 350 349 350 351 349 349 348 347 347 347 348 347 347 347 347 348 346 344 343 345 347 346 345 347 347 348 349 348 349 352 353 350 349
358 357 356 354 353 353 355 355 356 356 354 353 352 352 352 351 351 351 351 351 350 350 351 352 351 350 350 351 351 350 348 349 351 351 349 349 348 347 346 346 346 346 347 348 347 347 347 345 344 346 347 346 346 349 349 349 350 350 350 352 352 351 350
360 358 357 357 356 356 357 356 358 358 356 354 352 352 352 351 351 352 351 351 352 351 351 352 352 352 353 352 352 350 349 350 350 349 349 349 348 346 346 346 346 346 347 348 347 347 347 346 346 346 348 348 347 349 350 350 351 352 350 349 351 351 352
358 359 358 358 358 358 359 357 358 360 358 355 354 353 353 352 352 351 351 351 353 353 352 352 353 353 353 353 353 351 351 351 349 348 350 349 347 346 347 346 346 347 347 348 348 347 346 346 345 346 348 347 345 347 349 350 351 352 351 349 350 351 351
357 359 358 359 359 357 359 359 358 361 359 356 354 353 352 352 353 353 352 351 351 353 353 353 353 353 353 352 352 350 349 349 349 349 349 348 348 347 347 347 346 347 347 347 348 347 345 345 344 344 345 344 344 346 349 351 352 352 352 352 351 352 351
356 357 357 358 357 356 358 359 358 360 360 357 355 352 352 352 352 354 354 352 350 351 353 353 353 353 353 352 352 351 351 350 350 350 350 349 348 347 347 347 346 347 347 347 347 347 345 345 344 344 344 344 345 346 348 351 352 352 353 353 352 352 352
353 355 355 356 356 356 356 356 356 359 359 358 354 352 353 353 353 353 353 353 352 351 352 354 353 353 353 352 353 353 352 352 351 350 350 350 349 348 347 347 347 347 347 347 347 346 345 345 345 345 345 345 346 347 348 350 351 352 352 352 353 352 352
350 352 354 354 354 355 354 354 355 357 359 358 356 354 353 353 353 353 353 352 352 352 352 353 354 355 354 353 353 353 353 353 352 352 352 351 350 349 348 347 347 347 346 347 347 346 346 345 345 346 346 346 347 347 348 349 349 350 350 351 352 352 351
347 350 352 352 352 353 354 353 354 355 358 358 357 357 355 353 353 353 353 352 352 352 352 352 354 355 356 355 355 355 355 355 353 353 353 353 351 350 349 347 346 346 346 347 347 347 347 347 347 347 346 347 347 348 348 347 347 348 349 350 351 351 351
346 348 349 351 352 352 353 353 353 353 355 356 357 358 357 355 353 353 353 353 352 353 353 352 352 353 356 357 357 358 357 356 356 354 353 354 353 352 351 349 348 348 347 347 347 347 348 348 348 348 347 347 348 348 347 347 347 348 349 349 349 348 348
345 347 347 349 351 351 352 353 353 354 355 355 356 357 357 357 356 355 354 353 354 354 354 353 351 351 354 357 357 359 359 358 358 357 354 354 353 353 353 352 350 349 348 348 348 347 348 348 349 348 348 347 348 348 348 347 348 348 348 349 348 347 346
346 347 347 347 349 350 350 351 353 354 354 355 356 357 358 359 359 358 356 354 354 355 355 354 353 352 352 353 355 357 357 357 359 359 358 356 354 354 354 353 353 352 350 349 349 348 348 349 348 348 348 348 348 348 349 348 348 348 348 348 348 346 345
348 348 348 348 349 350 350 352 354 354 355 355 356 357 357 358 359 360 357 353 351 352 353 353 353 353 352 351 351 353 354 356 357 359 361 360 357 356 354 353 354 353 352 352 351 351 351 351 350 348 348 349 350 349 349 348 348 348 349 348 348 346 344
349 348 349 350 350 350 351 352 353 354 355 356 357 359 359 358 359 359 353 349 349 351 352 351 350 350 350 349 350 351 353 354 354 356 358 361 361 360 358 356 355 355 355 355 354 354 353 353 352 351 349 351 351 350 349 348 347 348 348 348 347 345 344
346 347 349 348 349 352 356 356 356 356 357 359 359 360 360 360 360 359 352 347 349 351 351 351 351 350 349 348 349 349 351 352 352 353 354 356 359 359 358 358 357 356 357 357 356 356 356 355 355 354 353 353 353 353 352 350 349 349 348 348 346 344 344
344 346 347 347 349 355 357 358 358 357 358 359 359 359 359 358 358 359 354 349 348 350 350 350 351 351 350 349 349 349 349 350 351 352 352 353 354 355 355 356 357 357 358 356 356 356 355 355 355 355 355 355 354 355 354 352 352 351 350 349 347 345 345
343 344 346 347 347 350 355 358 358 356 356 357 356 356 356 353 353 354 353 350 349 350 351 352 353 353 353 352 351 350 350 350 350 351 352 352 352 350 350 351 352 355 356 356 355 355 355 355 355 354 355 354 354 355 354 353 352 351 352 351 349 347 347
344 344 346 346 346 350 355 358 356 354 354 354 354 354 353 351 351 350 350 349 349 350 352 353 354 354 354 354 354 352 351 351 351 351 351 352 352 349 348 348 349 349 350 353 356 355 354 355 355 355 356 356 356 356 355 355 354 353 353 352 350 349 348
347 346 346 347 349 351 353 353 353 353 353 352 352 352 351 351 350 349 348 348 347 348 350 350 351 351 350 352 352 351 351 350 351 351 351 351 352 351 350 349 349 348 347 350 354 353 352 353 354 355 356 357 358 358 357 357 357 355 355 353 351 350 348
347 346 348 351 353 351 351 352 353 353 352 350 349 349 349 349 348 347 347 347 347 348 348 348 349 349 349 349 349 349 350 349 349 350 349 349 349 350 350 349 349 349 348 349 352 351 350 351 351 353 355 356 357 358 358 358 357 357 356 355 353 351 349
349 350 352 352 352 351 351 351 353 352 351 349 347 346 347 346 345 347 347 346 347 348 347 348 348 348 348 348 348 348 347 347 346 347 346 346 346 346 347 347 347 348 348 349 351 351 351 351 350 351 351 351 352 355 356 356 356 355 356 356 355 354 353
350 350 350 350 350 351 350 351 352 350 348 347 346 345 345 345 345 346 346 346 347 347 347 347 347 347 347 346 346 347 345 344 344 343 343 343 343 343 344 344 344 344 345 346 347 349 350 350 350 351 352 351 351 352 352 352 354 356 355 356 355 355 354
349 348 348 348 350 350 350 350 350 348 346 346 345 344 345 345 345 345 345 346 346 346 346 346 346 346 346 345 345 344 343 343 342 341 341 340 340 340 341 341 342 342 342 343 344 345 346 347 348 350 351 351 351 352 351 351 353 355 354 354 354 354 353
349 349 349 350 351 351 350 349 348 346 345 345 344 344 344 343 344 345 345 345 345 345 345 345 345 345 345 344 344 342 341 342 341 340 340 339 338 339 339 339 339 340 340 341 342 342 343 344 345 346 347 348 349 350 350 351 351 352 352 352 352 353 352
350 350 350 351 351 350 349 349 347 345 346 345 343 343 343 342 342 342 342 343 343 344 344 344 345 344 344 343 342 341 341 341 340 340 340 339 338 339 338 338 338 338 338 339 340 341 341 342 342 343 344 346 347 347 348 349 349 350 351 351 351 351 352
353 353 352 352 351 350 348 348 347 344 344 344 343 342 341 341 341 340 341 342 342 343 344 344 344 344 343 342 341 341 340 340 339 339 339 339 338 338 338 338 338 337 337 337 338 338 339 339 340 340 341 342 344 345 346 348 348 349 349 349 350 350 350
355 353 352 351 350 348 347 346 345 343 342 342 342 341 341 341 340 340 341 342 342 342 343 343 343 344 343 342 341 341 340 340 339 339 338 338 338 337 337 337 337 337 337 337 337 336 336 336 336 337 337 337 338 339 340 342 345 346 347 347 349 349 349
353 352 350 348 347 346 345 344 343 342 340 340 340 340 340 340 339 339 340 341 342 342 342 342 343 343 342 342 341 341 341 341 340 339 338 338 338 338 338 337 336 336 336 336 335 334 332 332 331 331 332 332 332 332 332 333 336 338 340 342 345 346 348
352 350 348 346 346 346 345 342 342 341 339 340 340 340 340 339 339 340 341 341 342 342 342 341 342 341 341 341 341 340 340 340 340 339 339 338 338 338 339 339 338 337 336 335 334 333 331 330 329 328 328 328 327 327 327 329 330 332 334 337 339 341 344
350 349 347 346 346 346 343 341 341 340 339 339 340 340 339 339 339 340 341 341 341 341 341 341 342 342 342 341 340 340 339 339 340 339 338 338 338 338 339 339 339 338 337 336 334 334 333 332 331 328 327 326 325 325 326 329 331 332 333 335 335 336 339
Wind_Speed
4 4 3 3 4 4 4 4 3 3 5 5 7 10 11 10 10 10 11 14 18 18 16 15 18 21 24 23 23 22 19 18 19 17 17 16 15 17 17 16 16 17 16 16 15 15 15 15 16 15 14 13 13 12 12 12 12 11 10 10 9 9 10
4 3 4 4 4 5 6 6 5 4 4 3 2 5 7 8 10 10 11 14 16 14 14 17 18 21 24 23 21 20 20 19 19 16 16 16 15 16 17 16 16 16 16 15 15 15 15 15 16 15 14 13 13 12 12 12 13 12 11 11 11 10 10
3 3 4 4 4 6 6 7 7 6 6 4 2 3 4 6 8 10 11 13 14 12 14 17 18 19 19 19 18 19 20 20 19 17 16 16 16 16 16 15 15 16 16 15 15 15 16 16 17 16 14 13 13 12 12 13 13 13 12 11 12 11 10
4 4 5 5 5 6 6 7 8 8 8 8 8 8 9 10 10 11 13 14 14 14 14 16 17 17 15 16 16 17 19 21 20 19 16 15 16 16 16 16 15 15 16 16 15 15 16 17 17 17 15 14 13 12 12 13 13 14 13 12 12 11 11
6 5 5 5 5 6 6 7 9 11 14 17 16 15 15 15 14 14 15 14 13 14 15 15 16 16 14 15 15 15 17 19 18 17 16 15 15 15 16 16 16 16 16 16 15 15 15 17 18 18 17 16 14 12 13 13 13 14 13 13 13 12 12
5 5 5 4 5 6 7 8 11 12 14 19 22 22 20 18 17 16 14 11 12 14 16 16 16 15 13 14 15 15 16 17 17 16 16 15 15 16 16 16 16 16 16 15 15 15 15 17 18 18 18 17 16 14 13 13 13 14 13 13 14 13 13
4 5 5 5 4 6 8 10 11 11 9 10 15 19 19 18 20 18 14 13 14 15 16 16 15 14 15 16 17 16 16 16 16 16 16 16 16 16 16 16 16 16 16 15 15 15 16 17 17 17 18 18 17 15 14 13 14 14 13 14 14 14 13
4 4 4 4 5 5 7 9 10 10 8 7 9 12 13 14 17 17 16 16 16 15 15 17 16 15 17 19 18 16 16 16 16 17 17 17 16 16 16 16 16 16 16 15 15 15 16 17 18 17 17 18 16 15 14 13 13 14 14 14 15 15 15
5 4 4 3 4 4 5 7 9 10 10 9 9 10 10 10 11 13 15 15 14 14 15 16 16 16 17 17 17 17 17 16 16 17 17 17 17 17 17 17 16 16 16 15 15 15 16 18 19 18 17 17 16 14 14 13 14 15 15 15 15 16 16
5 4 5 4 4 3 4 6 7 9 10 9 9 10 8 8 9 10 12 13 13 14 15 14 14 15 16 16 17 19 20 18 16 16 17 17 17 17 18 17 17 16 16 15 15 15 16 17 18 17 17 17 15 15 15 14 15 15 15 16 16 16 17
5 4 5 5 5 5 5 5 5 7 8 9 9 10 10 10 10 10 10 12 13 13 14 14 14 14 16 16 16 18 18 16 16 16 17 17 17 17 18 17 17 16 16 15 14 15 16 16 16 16 17 17 16 16 16 15 15 15 16 16 16 16 17
5 4 5 5 5 5 5 4 4 6 8 8 8 9 9 11 11 11 10 10 11 12 12 13 13 13 15 15 15 15 15 15 16 17 16 16 16 17 17 17 16 16 16 16 15 15 16 17 17 17 16 17 17 17 16 16 16 16 16 16 16 16 16
5 5 4 4 4 4 4 4 4 5 7 7 8 8 8 9 10 10 10 10 10 10 10 11 12 13 13 13 14 15 16 16 16 15 15 16 16 16 17 17 17 16 16 16 16 16 16 17 18 17 17 18 18 18 16 16 16 16 16 16 16 16 16
6 6 5 4 3 3 4 3 3 3 5 6 7 8 8 8 9 9 9 9 10 11 10 11 12 12 12 12 12 13 14 14 14 13 14 15 15 15 16 16 16 16 16 16 16 17 17 17 18 18 19 19 19 18 16 16 16 16 16 17 16 15 15
7 7 6 5 4 4 4 3 3 3 4 5 7 8 8 8 7 8 7 8 10 12 12 11 12 12 12 11 11 11 12 12 12 12 13 14 15 15 15 16 16 16 16 16 17 17 17 17 18 18 19 18 18 17 17 16 17 17 18 17 17 16 16
7 7 7 5 5 4 4 4 4 4 4 5 6 8 8 8 7 7 7 8 9 11 12 12 11 10 11 11 10 10 10 11 11 11 12 13 15 16 16 16 16 16 16 16 16 16 17 17 17 17 18 18 18 17 17 17 17 18 19 19 17 16 15
7 7 6 6 5 5 5 4 4 4 4 5 5 7 8 8 7 6 7 8 9 9 11 11 10 9 9 8 8 7 8 10 11 12 12 13 14 15 16 17 16 16 16 17 17 17 17 16 17 17 17 18 18 18 19 18 18 18 20 21 20 17 15
8 7 6 6 6 5 5 4 4 4 4 4 5 5 6 7 7 7 7 7 7 7 8 9 9 8 7 6 6 7 8 9 11 13 14 14 14 15 15 16 16 16 17 17 18 18 17 17 18 18 18 18 18 19 19 19 18 18 20 22 22 21 18
8 8 7 7 6 6 5 4 4 4 4 4 4 5 5 5 6 6 6 6 6 5 5 5 6 6 5 6 8 10 10 11 11 12 14 15 15 15 15 16 17 17 17 18 18 18 18 18 19 19 19 18 18 19 19 19 19 20 21 22 23 23 21
8 8 7 7 6 6 5 5 5 5 5 4 5 5 5 5 5 5 5 6 5 5 4 6 7 9 10 13 15 15 13 12 12 11 12 14 15 16 16 17 18 18 18 17 18 18 19 20 20 20 20 20 20 19 20 20 20 20 22 23 23 23 22
8 8 8 7 6 6 5 5 6 5 5 5 5 5 4 4 5 6 7 8 7 5 8 9 9 9 12 14 14 14 13 13 13 12 11 12 14 15 17 17 18 18 18 17 18 18 19 20 20 20 21 21 21 21 21 21 21 22 23 24 24 23 22
8 8 8 7 7 6 5 6 6 6 6 5 5 5 4 4 4 6 9 9 7 6 9 8 6 5 8 8 8 10 11 12 15 15 14 13 13 14 16 17 18 18 17 17 17 18 18 19 19 20 21 21 21 22 22 22 22 23 24 25 25 24 23
9 8 8 8 8 6 6 6 7 7 7 6 5 5 5 5 4 5 8 9 6 5 6 5 4 5 6 6 7 8 9 11 14 16 16 15 15 15 16 17 18 18 17 17 18 18 18 18 18 19 20 20 21 22 23 22 22 23 25 25 25 25 24
9 10 9 9 9 9 9 9 10 9 9 9 8 6 5 5 4 4 7 9 7 6 6 5 5 5 5 5 5 5 7 9 12 14 15 15 15 16 15 15 15 15 15 17 18 18 18 18 18 18 19 20 22 22 23 23 23 23 25 26 26 26 25
9 10 10 10 10 10 10 11 12 11 10 9 8 7 5 4 3 3 5 8 9 8 7 6 6 5 5 5 5 5 6 7 10 12 13 13 14 15 15 15 14 12 12 14 17 17 18 18 19 19 20 20 22 23 23 24 23 23 25 26 27 28 26
9 10 11 11 11 11 12 12 12 10 9 9 7 6 4 2 2 2 3 4 5 7 7 7 6 5 6 5 5 5 6 7 8 9 11 11 11 12 14 15 16 15 15 15 14 15 16 17 17 19 19 20 20 22 23 24 24 23 25 25 26 27 27
10 10 10 11 12 13 12 11 10 10 9 8 6 4 3 2 1 2 2 2 3 4 5 5 5 5 6 6 6 6 7 7 7 8 9 9 8 8 10 12 14 16 17 16 15 15 17 17 16 16 17 17 17 19 20 21 22 22 24 26 28 28 28
11 10 11 13 14 13 11 10 10 10 9 8 5 3 2 1 1 1 2 3 4 4 4 5 6 6 6 6 6 5 4 4 4 4 6 6 5 5 6 8 10 12 13 14 14 16 18 18 18 18 18 17 17 17 18 19 21 21 21 23 26 28 29
11 11 13 14 13 12 11 11 10 9 8 6 4 2 1 1 2 2 3 3 3 4 4 5 6 6 6 6 5 5 4 4 3 3 5 6 6 6 7 8 9 9 9 10 11 12 14 17 18 19 21 23 22 21 21 21 22 22 22 22 24 25 27
11 12 12 12 12 12 11 11 10 8 6 5 3 3 2 2 2 3 4 3 3 4 6 5 5 6 6 5 4 4 5 4 4 4 5 6 6 7 8 9 10 10 10 11 11 11 12 14 15 15 18 22 24 24 24 22 21 21 22 23 24 24 25
12 11 11 11 12 11 11 11 10 7 5 5 4 4 3 3 3 4 4 3 3 4 6 6 5 5 5 4 3 4 4 4 5 6 6 6 6 6 7 8 9 10 11 12 12 13 14 14 15 15 15 17 19 21 22 21 20 21 23 24 24 25 26
11 12 12 12 12 11 11 10 9 7 6 5 4 4 4 4 4 5 4 3 4 5 6 6 5 5 5 3 3 3 3 4 5 6 6 5 5 6 6 7 8 9 10 11 12 13 14 15 16 16 17 17 18 19 19 19 19 21 22 22 23 24 25
11 12 12 12 12 11 10 9 8 6 6 6 5 4 4 5 5 6 5 5 5 6 6 6 6 6 6 4 3 3 4 4 5 5 6 6 5 6 6 7 7 8 9 10 11 13 14 14 15 16 17 17 18 19 19 19 19 20 20 21 21 21 21
12 13 12 12 11 10 8 7 6 5 4 5 5 5 5 5 6 6 6 6 6 5 6 7 7 7 6 6 4 4 4 4 4 5 6 6 6 6 7 7 7 8 9 9 11 11 12 13 15 16 17 17 18 18 19 19 19 18 18 18 19 19 19
13 13 13 12 10 8 6 5 5 4 4 4 4 5 5 6 6 7 7 7 7 6 7 8 7 6 6 6 6 6 5 5 6 6 6 6 6 6 7 7 7 7 8 9 10 12 13 14 16 17 18 19 19 19 18 19 19 17 15 14 15 16 18
14 13 13 11 9 7 6 5 4 4 3 3 4 5 5 5 6 6 7 7 7 8 9 9 7 6 7 8 8 7 6 6 6 5 6 7 7 7 7 7 6 5 6 6 7 8 10 12 14 17 18 19 20 19 20 22 23 22 22 21 19 18 19
14 13 12 11 9 8 7 6 5 4 4 4 4 4 4 4 4 5 5 5 5 7 8 8 7 7 8 9 8 6 4 5 5 5 6 7 6 6 7 6 4 3 6 8 7 7 8 10 11 13 16 19 21 23 26 29 30 30 30 30 29 27 24
14 13 12 10 9 8 7 6 5 4 4 4 4 4 3 3 4 3 3 3 4 6 8 7 7 7 7 7 7 5 4 5 4 4 5 6 6 6 6 4 3 2 4 8 9 9 10 12 13 12 11 13 17 23 28 30 29 28 28 27 27 30 32
Wind_Direction
125 120 111 101 89 85 91 97 109 126 131 158 163 146 146 156 169 184 191 198 204 202 199 194 193 194 192 193 196 192 192 195 193 190 190 190 190 190 189 190 189 188 186 184 185 187 188 189 193 198 199 200 203 206 207 206 205 207 205 204 205 202 202
143 131 118 117 109 100 101 108 108 107 113 118 123 133 149 167 185 197 196 197 202 201 201 204 205 201 194 189 190 193 193 193 196 196 191 188 190 188 188 190 188 188 188 187 186 188 189 190 193 197 197 199 204 203 204 205 204 206 205 204 205 203 204
154 131 119 125 121 116 119 122 122 126 134 137 147 184 206 205 203 209 208 203 201 200 205 210 212 208 195 181 182 189 189 190 196 199 194 189 189 186 185 187 187 187 187 188 188 188 192 195 196 198 197 201 204 202 203 204 202 205 204 202 207 206 206
152 131 126 131 131 133 137 133 133 138 143 154 177 200 213 220 219 216 213 207 198 197 207 214 217 215 199 182 184 187 186 190 196 198 195 190 189 186 184 185 187 188 186 187 190 190 194 196 197 199 198 200 205 202 204 205 202 205 204 202 209 208 206
158 147 142 150 154 152 145 145 159 166 163 165 177 192 199 205 211 211 210 201 191 198 210 216 222 218 197 187 194 193 191 194 197 199 194 188 189 188 186 186 187 188 187 188 191 192 194 195 196 198 196 199 205 203 203 206 204 205 203 203 209 209 207
166 159 160 172 172 156 150 164 182 190 181 171 176 188 193 196 202 208 211 203 197 206 209 211 218 212 193 190 196 192 193 195 195 198 194 189 190 189 188 188 187 188 188 188 191 192 193 196 198 197 196 198 204 204 204 206 206 206 205 206 210 213 214
167 166 171 184 188 167 161 176 190 199 199 185 185 191 190 191 197 199 199 199 203 206 202 205 211 204 193 195 194 191 193 195 194 197 196 192 190 188 188 188 187 188 187 187 192 193 193 197 200 199 197 199 203 206 205 204 207 207 205 208 212 215 222
156 166 174 185 198 182 164 178 190 190 193 198 202 205 200 193 191 190 190 195 199 198 196 201 203 198 197 196 193 193 194 194 195 197 196 192 189 189 188 186 186 186 185 188 192 194 193 196 200 200 198 199 202 205 205 203 208 211 209 211 213 214 221
145 148 152 167 195 183 161 176 182 177 181 186 189 202 211 205 194 189 191 194 194 194 195 197 195 195 198 194 189 192 195 195 196 197 195 192 189 190 189 186 186 186 187 190 190 191 192 194 199 199 197 200 202 202 205 204 206 213 213 213 213 214 220
144 144 141 152 172 171 164 175 171 167 176 182 182 186 193 205 208 201 197 194 193 196 195 192 190 190 192 192 190 193 197 196 195 194 193 192 191 191 190 187 185 186 189 191 189 189 191 193 196 195 195 201 202 201 206 207 207 211 213 214 214 214 219
148 148 147 155 166 170 170 176 176 171 174 179 186 185 182 189 198 201 204 201 196 198 195 187 185 184 188 192 193 195 198 194 192 195 194 192 192 191 191 189 186 186 189 192 192 190 189 192 195 195 196 200 203 203 206 208 209 211 213 216 217 217 219
149 146 150 159 166 168 166 175 188 180 175 178 184 186 186 189 189 187 196 205 204 202 195 185 182 183 188 192 192 197 202 196 194 195 192 192 194 191 190 190 187 186 189 193 195 193 192 193 196 199 200 203 207 208 208 209 211 211 214 217 218 220 221
142 137 144 156 163 164 161 174 193 181 173 178 183 185 187 190 190 182 181 194 204 203 195 186 182 183 189 191 189 196 202 197 195 195 192 193 195 192 190 191 189 189 190 193 195 197 198 196 197 202 204 206 211 212 209 209 211 212 214 218 220 221 222
142 139 147 159 158 154 153 160 173 169 167 174 182 188 188 189 193 188 177 182 194 197 195 189 184 183 188 190 190 194 197 196 195 194 193 193 195 194 193 191 192 192 193 194 196 199 202 200 198 202 206 207 210 213 212 211 212 214 214 217 221 222 223
153 150 155 163 155 146 143 142 142 140 148 168 180 187 190 189 190 191 186 182 187 192 193 190 188 186 186 188 191 192 193 195 197 195 192 192 194 197 197 196 195 195 196 198 199 201 205 205 202 202 206 208 210 213 215 215 215 217 217 218 220 222 223
162 159 161 164 158 147 139 132 132 131 134 154 173 179 184 187 186 189 191 186 186 190 192 192 193 191 188 188 192 192 193 197 199 198 194 193 195 198 201 201 200 200 201 202 203 204 206 208 208 208 208 209 211 214 217 220 221 219 218 218 218 220 225
166 167 164 163 160 151 144 140 135 133 130 137 156 169 177 183 184 186 188 187 187 189 192 194 196 195 192 188 188 192 197 200 202 201 199 198 199 201 203 206 206 205 206 206 207 208 209 210 212 213 213 212 214 216 219 222 224 220 218 218 217 220 226
170 172 169 167 166 159 160 157 147 139 124 118 133 152 165 175 181 184 184 182 181 183 190 196 200 202 195 185 186 192 199 204 204 204 203 202 204 206 207 210 211 210 210 211 210 210 211 214 216 218 220 219 219 221 223 225 225 223 223 223 223 224 227
170 175 174 171 170 168 170 168 161 150 134 123 118 119 132 153 168 177 175 168 163 163 173 190 203 204 194 195 201 199 201 206 206 206 207 206 206 208 209 212 215 215 214 213 213 213 215 217 219 222 224 226 227 227 228 229 228 227 227 227 228 229 229
172 174 176 174 173 176 176 172 170 162 149 138 120 106 107 116 124 137 143 138 128 125 149 181 194 195 197 204 208 205 204 210 210 208 210 210 209 209 210 212 215 216 216 214 213 215 217 219 221 223 225 227 229 231 232 232 230 230 229 229 230 232 231
173 174 177 177 178 182 182 176 173 168 161 151 134 125 120 111 110 113 111 109 115 147 187 194 189 194 207 212 212 208 210 216 216 212 209 210 211 213 213 214 215 216 217 216 215 216 218 220 223 223 224 226 227 230 232 232 231 230 230 230 232 235 236
173 176 175 175 181 186 185 180 174 166 157 151 144 140 136 127 124 116 106 107 127 180 208 207 194 203 220 224 219 213 215 221 223 221 215 209 208 212 214 215 216 216 216 217 218 219 219 222 225 227 228 228 228 231 234 234 232 230 229 231 233 237 239
162 171 172 171 172 165 154 153 151 146 139 133 128 128 130 132 137 130 117 119 147 203 216 206 200 215 232 238 231 224 224 228 229 229 226 219 215 216 217 218 219 218 217 217 219 220 220 222 226 229 230 231 231 231 234 236 234 230 230 231 232 234 235
156 165 164 160 154 143 135 133 132 132 129 122 113 109 118 128 136 141 133 136 166 215 227 209 201 207 226 236 230 221 223 227 230 234 234 231 228 228 230 231 228 223 220 221 224 226 226 228 230 231 233 235 234 234 235 237 236 232 231 232 233 234 231
158 159 155 153 150 142 134 128 126 128 127 122 113 104 107 118 126 144 144 144 167 202 224 224 210 199 209 222 219 211 209 215 224 232 238 239 237 237 240 242 241 239 234 230 231 233 233 233 235 236 237 237 237 237 238 239 239 237 235 236 237 236 231
156 154 153 150 143 136 133 131 131 132 127 118 111 104 100 101 114 134 134 136 168 198 216 221 211 197 199 207 212 216 214 211 218 229 238 243 242 240 239 238 240 243 243 239 237 238 239 238 237 238 238 238 238 239 238 239 241 239 237 236 238 238 234
151 152 150 142 136 137 140 137 131 126 120 113 110 105 101 102 122 136 136 157 195 214 223 226 222 213 210 210 216 224 226 223 224 232 239 243 248 251 246 240 239 241 243 245 245 245 246 247 244 243 242 239 239 239 238 238 239 239 238 237 237 239 236
147 143 136 134 138 141 140 132 123 118 114 113 114 106 99 128 172 160 177 202 207 211 220 228 228 222 217 214 210 211 219 222 222 234 244 246 255 268 262 253 250 249 249 251 251 249 250 250 248 249 251 250 246 242 242 242 241 241 242 242 241 241 240
141 137 137 139 142 141 137 132 125 117 113 116 124 132 144 192 198 191 214 219 198 187 200 217 224 218 208 199 190 187 199 218 224 230 244 252 262 273 274 270 269 269 267 266 263 260 257 255 252 250 252 254 253 249 247 247 246 244 244 245 245 245 244
142 145 149 145 142 140 138 132 124 118 120 129 147 163 175 201 211 214 223 210 180 183 191 194 210 222 211 194 190 197 204 218 235 244 249 257 264 269 272 273 274 275 274 273 272 271 268 264 258 252 250 252 253 252 249 245 243 243 244 245 247 248 247
146 148 146 139 138 139 137 131 127 131 141 149 157 169 182 206 219 225 226 203 183 207 203 182 192 228 228 206 212 231 230 233 246 251 252 255 261 267 271 273 273 272 272 270 267 266 268 266 263 260 257 255 256 257 255 248 244 245 247 247 249 251 250
143 143 140 137 135 133 132 131 133 142 152 157 168 184 196 211 226 237 237 216 210 228 223 196 196 222 230 215 219 244 258 260 256 253 251 248 250 258 264 265 264 264 265 266 264 263 265 265 266 266 265 262 261 263 263 259 254 252 250 249 249 249 250
140 142 141 137 133 134 138 139 142 153 162 164 178 200 210 216 226 234 235 230 227 231 232 224 218 213 203 200 219 242 251 254 251 252 257 256 253 256 257 256 257 256 255 257 259 262 264 265 265 267 267 266 266 264 262 259 256 254 251 248 246 245 243
138 138 134 131 132 138 142 142 145 159 171 173 185 209 222 225 230 231 231 234 234 230 231 231 227 216 201 198 216 229 232 244 253 254 258 259 256 255 254 250 249 251 254 259 262 264 268 271 269 268 267 267 267 266 264 260 255 254 252 246 243 243 242
139 136 131 131 136 140 143 146 152 166 185 192 200 219 228 231 237 238 237 238 234 229 227 221 217 221 221 217 227 228 219 230 248 254 259 262 260 259 257 252 251 256 262 267 267 265 268 273 274 271 270 269 266 265 265 263 257 255 255 248 240 240 241
141 139 138 142 148 148 151 158 163 174 196 207 213 228 236 239 243 241 239 238 234 234 234 225 211 212 218 225 241 246 236 231 237 243 254 262 266 270 266 253 250 273 288 288 285 283 285 286 280 272 268 268 266 262 262 263 261 260 258 255 249 243 237
147 146 148 153 156 154 155 159 167 181 198 205 213 222 229 236 235 229 229 234 237 241 242 233 219 216 221 232 249 263 267 265 259 253 258 261 263 272 272 253 234 277 319 325 330 342 346 337 315 289 272 267 268 269 269 269 268 266 264 260 255 247 240
151 150 154 159 161 160 162 166 175 187 196 201 209 210 212 226 230 223 221 224 236 251 251 240 230 231 235 243 254 261 266 267 268 270 273 274 270 266 270 269 251 264 320 331 338 351 358 357 353 345 323 297 282 275 273 273 273 271 268 265 259 250 241